Year,Month,Day,Hour,Minute,Value (Times are PST for temperature in C)
2006,07,17,00,00,14.10
2006,07,17,00,01,14.10
2006,07,17,00,02,14.10
2006,07,17,00,03,14.10
2006,07,17,00,04,14.10
2006,07,17,00,05,14.20
2006,07,17,00,06,14.10
2006,07,17,00,07,14.10
2006,07,17,00,08,14.10
2006,07,17,00,09,14.10
2006,07,17,00,10,14.10
2006,07,17,00,11,14.10
2006,07,17,00,12,14.10
2006,07,17,00,13,14.10
2006,07,17,00,14,14.10
2006,07,17,00,15,14.10
2006,07,17,00,16,14.10
2006,07,17,00,17,14.10
2006,07,17,00,18,14.10
2006,07,17,00,19,14.00
2006,07,17,00,20,14.00
2006,07,17,00,21,14.00
2006,07,17,00,22,13.90
2006,07,17,00,23,13.90
2006,07,17,00,24,13.90
2006,07,17,00,25,13.80
2006,07,17,00,26,13.80
2006,07,17,00,27,13.80
2006,07,17,00,28,13.70
2006,07,17,00,29,13.70
2006,07,17,00,30,13.70
2006,07,17,00,31,13.70
2006,07,17,00,32,13.60
2006,07,17,00,33,13.60
2006,07,17,00,34,13.60
2006,07,17,00,35,13.60
2006,07,17,00,36,13.60
2006,07,17,00,37,13.60
2006,07,17,00,38,13.60
2006,07,17,00,39,13.50
2006,07,17,00,40,13.50
2006,07,17,00,41,13.50
2006,07,17,00,42,13.40
2006,07,17,00,43,13.40
2006,07,17,00,44,13.40
2006,07,17,00,45,13.40
2006,07,17,00,46,13.30
2006,07,17,00,47,13.30
2006,07,17,00,48,13.30
2006,07,17,00,49,13.30
2006,07,17,00,50,13.30
2006,07,17,00,51,13.20
2006,07,17,00,52,13.20
2006,07,17,00,53,13.20
2006,07,17,00,54,13.20
2006,07,17,00,55,13.10
2006,07,17,00,56,13.10
2006,07,17,00,57,13.10
2006,07,17,00,58,13.10
2006,07,17,00,59,13.10
2006,07,17,01,00,13.10
2006,07,17,01,01,13.10
2006,07,17,01,02,13.10
2006,07,17,01,03,13.10
2006,07,17,01,04,13.10
2006,07,17,01,05,13.10
2006,07,17,01,06,13.10
2006,07,17,01,07,13.10
2006,07,17,01,08,13.10
2006,07,17,01,09,13.10
2006,07,17,01,10,13.10
2006,07,17,01,11,13.10
2006,07,17,01,12,13.10
2006,07,17,01,13,13.10
2006,07,17,01,14,13.10
2006,07,17,01,15,13.10
2006,07,17,01,16,13.20
2006,07,17,01,17,13.20
2006,07,17,01,18,13.20
2006,07,17,01,19,13.20
2006,07,17,01,20,13.20
2006,07,17,01,21,13.20
2006,07,17,01,22,13.20
2006,07,17,01,23,13.20
2006,07,17,01,24,13.20
2006,07,17,01,25,13.20
2006,07,17,01,26,13.20
2006,07,17,01,27,13.20
2006,07,17,01,28,13.20
2006,07,17,01,29,13.20
2006,07,17,01,30,13.20
2006,07,17,01,31,13.20
2006,07,17,01,32,13.20
2006,07,17,01,33,13.20
2006,07,17,01,34,13.20
2006,07,17,01,35,13.20
2006,07,17,01,36,13.20
2006,07,17,01,37,13.20
2006,07,17,01,38,13.20
2006,07,17,01,39,13.20
2006,07,17,01,40,13.20
2006,07,17,01,41,13.20
2006,07,17,01,42,13.20
2006,07,17,01,43,13.20
2006,07,17,01,44,13.20
2006,07,17,01,45,13.20
2006,07,17,01,46,13.20
2006,07,17,01,47,13.20
2006,07,17,01,48,13.20
2006,07,17,01,49,13.20
2006,07,17,01,50,13.20
2006,07,17,01,51,13.10
2006,07,17,01,52,13.10
2006,07,17,01,53,13.20
2006,07,17,01,54,13.20
2006,07,17,01,55,13.20
2006,07,17,01,56,13.20
2006,07,17,01,57,13.20
2006,07,17,01,58,13.20
2006,07,17,01,59,13.30
2006,07,17,02,00,13.30
2006,07,17,02,01,13.20
2006,07,17,02,02,13.20
2006,07,17,02,03,13.20
2006,07,17,02,04,13.20
2006,07,17,02,05,13.20
2006,07,17,02,06,13.20
2006,07,17,02,07,13.20
2006,07,17,02,08,13.20
2006,07,17,02,09,13.20
2006,07,17,02,10,13.20
2006,07,17,02,11,13.20
2006,07,17,02,12,13.20
2006,07,17,02,13,13.10
2006,07,17,02,14,13.10
2006,07,17,02,15,13.10
2006,07,17,02,16,13.10
2006,07,17,02,17,13.10
2006,07,17,02,18,13.10
2006,07,17,02,19,13.10
2006,07,17,02,20,13.10
2006,07,17,02,21,13.10
2006,07,17,02,22,13.10
2006,07,17,02,23,13.10
2006,07,17,02,24,13.10
2006,07,17,02,25,13.10
2006,07,17,02,26,13.10
2006,07,17,02,27,13.10
2006,07,17,02,28,13.10
2006,07,17,02,29,13.10
2006,07,17,02,30,13.10
2006,07,17,02,31,13.10
2006,07,17,02,32,13.10
2006,07,17,02,33,13.10
2006,07,17,02,34,13.10
2006,07,17,02,35,13.10
2006,07,17,02,36,13.10
2006,07,17,02,37,13.10
2006,07,17,02,38,13.10
2006,07,17,02,39,13.10
2006,07,17,02,40,13.10
2006,07,17,02,41,13.10
2006,07,17,02,42,13.10
2006,07,17,02,43,13.10
2006,07,17,02,44,13.10
2006,07,17,02,45,13.10
2006,07,17,02,46,13.10
2006,07,17,02,47,13.10
2006,07,17,02,48,13.10
2006,07,17,02,49,13.00
2006,07,17,02,50,13.00
2006,07,17,02,51,13.00
2006,07,17,02,52,12.90
2006,07,17,02,53,12.90
2006,07,17,02,54,12.90
2006,07,17,02,55,12.90
2006,07,17,02,56,12.90
2006,07,17,02,57,12.90
2006,07,17,02,58,12.90
2006,07,17,02,59,12.90
2006,07,17,03,00,12.90
2006,07,17,03,01,12.90
2006,07,17,03,02,12.90
2006,07,17,03,03,12.90
2006,07,17,03,04,12.90
2006,07,17,03,05,12.90
2006,07,17,03,06,13.00
2006,07,17,03,07,13.00
2006,07,17,03,08,13.10
2006,07,17,03,09,13.10
2006,07,17,03,10,13.10
2006,07,17,03,11,13.10
2006,07,17,03,12,13.10
2006,07,17,03,13,13.10
2006,07,17,03,14,13.10
2006,07,17,03,15,13.10
2006,07,17,03,16,13.10
2006,07,17,03,17,13.10
2006,07,17,03,18,13.10
2006,07,17,03,19,13.10
2006,07,17,03,20,13.10
2006,07,17,03,21,13.10
2006,07,17,03,22,13.10
2006,07,17,03,23,13.10
2006,07,17,03,24,13.10
2006,07,17,03,25,13.10
2006,07,17,03,26,13.10
2006,07,17,03,27,13.10
2006,07,17,03,28,13.10
2006,07,17,03,29,13.10
2006,07,17,03,30,13.10
2006,07,17,03,31,13.10
2006,07,17,03,32,13.10
2006,07,17,03,33,13.20
2006,07,17,03,34,13.20
2006,07,17,03,35,13.20
2006,07,17,03,36,13.20
2006,07,17,03,37,13.20
2006,07,17,03,38,13.20
2006,07,17,03,39,13.10
2006,07,17,03,40,13.10
2006,07,17,03,41,13.10
2006,07,17,03,42,13.10
2006,07,17,03,43,13.10
2006,07,17,03,44,13.10
2006,07,17,03,45,13.10
2006,07,17,03,46,13.10
2006,07,17,03,47,13.10
2006,07,17,03,48,13.10
2006,07,17,03,49,13.10
2006,07,17,03,50,13.10
2006,07,17,03,51,13.10
2006,07,17,03,52,13.10
2006,07,17,03,53,13.10
2006,07,17,03,54,13.10
2006,07,17,03,55,13.10
2006,07,17,03,56,13.10
2006,07,17,03,57,13.10
2006,07,17,03,58,13.10
2006,07,17,03,59,13.10
2006,07,17,04,00,13.10
2006,07,17,04,01,13.10
2006,07,17,04,02,13.10
2006,07,17,04,03,13.10
2006,07,17,04,04,13.10
2006,07,17,04,05,13.10
2006,07,17,04,06,13.10
2006,07,17,04,07,13.10
2006,07,17,04,08,13.00
2006,07,17,04,09,13.00
2006,07,17,04,10,13.10
2006,07,17,04,11,13.10
2006,07,17,04,12,13.10
2006,07,17,04,13,13.10
2006,07,17,04,14,13.00
2006,07,17,04,15,13.10
2006,07,17,04,16,13.00
2006,07,17,04,17,13.10
2006,07,17,04,18,13.10
2006,07,17,04,19,13.10
2006,07,17,04,20,13.10
2006,07,17,04,21,13.10
2006,07,17,04,22,13.10
2006,07,17,04,23,13.10
2006,07,17,04,24,13.10
2006,07,17,04,25,13.10
2006,07,17,04,26,13.10
2006,07,17,04,27,13.10
2006,07,17,04,28,13.00
2006,07,17,04,29,13.00
2006,07,17,04,30,13.00
2006,07,17,04,31,13.00
2006,07,17,04,32,13.00
2006,07,17,04,33,12.90
2006,07,17,04,34,12.90
2006,07,17,04,35,12.90
2006,07,17,04,36,12.90
2006,07,17,04,37,12.90
2006,07,17,04,38,12.90
2006,07,17,04,39,12.90
2006,07,17,04,40,12.90
2006,07,17,04,41,12.90
2006,07,17,04,42,12.90
2006,07,17,04,43,12.90
2006,07,17,04,44,12.80
2006,07,17,04,45,12.80
2006,07,17,04,46,12.80
2006,07,17,04,47,12.80
2006,07,17,04,48,12.80
2006,07,17,04,49,12.80
2006,07,17,04,50,12.80
2006,07,17,04,51,12.80
2006,07,17,04,52,12.80
2006,07,17,04,53,12.80
2006,07,17,04,54,12.80
2006,07,17,04,55,12.80
2006,07,17,04,56,12.80
2006,07,17,04,57,12.80
2006,07,17,04,58,12.90
2006,07,17,04,59,12.80
2006,07,17,05,00,12.80
2006,07,17,05,01,12.80
2006,07,17,05,02,12.80
2006,07,17,05,03,12.80
2006,07,17,05,04,12.80
2006,07,17,05,05,12.80
2006,07,17,05,06,12.80
2006,07,17,05,07,12.80
2006,07,17,05,08,12.80
2006,07,17,05,09,12.80
2006,07,17,05,10,12.80
2006,07,17,05,11,12.80
2006,07,17,05,12,12.80
2006,07,17,05,13,12.80
2006,07,17,05,14,12.80
2006,07,17,05,15,12.80
2006,07,17,05,16,12.80
2006,07,17,05,17,12.80
2006,07,17,05,18,12.80
2006,07,17,05,19,12.80
2006,07,17,05,20,12.80
2006,07,17,05,21,12.80
2006,07,17,05,22,12.80
2006,07,17,05,23,12.80
2006,07,17,05,24,12.80
2006,07,17,05,25,12.80
2006,07,17,05,26,12.80
2006,07,17,05,27,12.80
2006,07,17,05,28,12.80
2006,07,17,05,29,12.80
2006,07,17,05,30,12.80
2006,07,17,05,31,12.80
2006,07,17,05,32,12.80
2006,07,17,05,33,12.80
2006,07,17,05,34,12.80
2006,07,17,05,35,12.80
2006,07,17,05,36,12.80
2006,07,17,05,37,12.80
2006,07,17,05,38,12.80
2006,07,17,05,39,12.80
2006,07,17,05,40,12.80
2006,07,17,05,41,12.80
2006,07,17,05,42,12.80
2006,07,17,05,43,12.80
2006,07,17,05,44,12.80
2006,07,17,05,45,12.80
2006,07,17,05,46,12.80
2006,07,17,05,47,12.70
2006,07,17,05,48,12.70
2006,07,17,05,49,12.80
2006,07,17,05,50,12.80
2006,07,17,05,51,12.80
2006,07,17,05,52,12.80
2006,07,17,05,53,12.80
2006,07,17,05,54,12.80
2006,07,17,05,55,12.70
2006,07,17,05,56,12.70
2006,07,17,05,57,12.70
2006,07,17,05,58,12.70
2006,07,17,05,59,12.70
2006,07,17,06,00,12.70
2006,07,17,06,01,12.80
2006,07,17,06,02,12.80
2006,07,17,06,03,12.80
2006,07,17,06,04,12.80
2006,07,17,06,05,12.80
2006,07,17,06,06,12.80
2006,07,17,06,07,12.80
2006,07,17,06,08,12.80
2006,07,17,06,09,12.80
2006,07,17,06,10,12.80
2006,07,17,06,11,12.80
2006,07,17,06,12,12.80
2006,07,17,06,13,12.80
2006,07,17,06,14,12.90
2006,07,17,06,15,12.90
2006,07,17,06,16,12.90
2006,07,17,06,17,12.90
2006,07,17,06,18,13.00
2006,07,17,06,19,13.00
2006,07,17,06,20,13.00
2006,07,17,06,21,13.00
2006,07,17,06,22,13.00
2006,07,17,06,23,13.00
2006,07,17,06,24,13.10
2006,07,17,06,25,13.10
2006,07,17,06,26,13.10
2006,07,17,06,27,13.10
2006,07,17,06,28,13.20
2006,07,17,06,29,13.20
2006,07,17,06,30,13.20
2006,07,17,06,31,13.20
2006,07,17,06,32,13.20
2006,07,17,06,33,13.20
2006,07,17,06,34,13.20
2006,07,17,06,35,13.20
2006,07,17,06,36,13.20
2006,07,17,06,37,13.20
2006,07,17,06,38,13.20
2006,07,17,06,39,13.20
2006,07,17,06,40,13.20
2006,07,17,06,41,13.30
2006,07,17,06,42,13.30
2006,07,17,06,43,13.30
2006,07,17,06,44,13.30
2006,07,17,06,45,13.30
2006,07,17,06,46,13.30
2006,07,17,06,47,13.30
2006,07,17,06,48,13.40
2006,07,17,06,49,13.40
2006,07,17,06,50,13.40
2006,07,17,06,51,13.40
2006,07,17,06,52,13.40
2006,07,17,06,53,13.40
2006,07,17,06,54,13.50
2006,07,17,06,55,13.50
2006,07,17,06,56,13.50
2006,07,17,06,57,13.50
2006,07,17,06,58,13.50
2006,07,17,06,59,13.50
2006,07,17,07,00,13.50
2006,07,17,07,01,13.50
2006,07,17,07,02,13.60
2006,07,17,07,03,13.60
2006,07,17,07,04,13.60
2006,07,17,07,05,13.60
2006,07,17,07,06,13.60
2006,07,17,07,07,13.60
2006,07,17,07,08,13.60
2006,07,17,07,09,13.60
2006,07,17,07,10,13.60
2006,07,17,07,11,13.60
2006,07,17,07,12,13.60
2006,07,17,07,13,13.70
2006,07,17,07,14,13.70
2006,07,17,07,15,13.70
2006,07,17,07,16,13.70
2006,07,17,07,17,13.70
2006,07,17,07,18,13.70
2006,07,17,07,19,13.70
2006,07,17,07,20,13.80
2006,07,17,07,21,13.80
2006,07,17,07,22,13.80
2006,07,17,07,23,13.80
2006,07,17,07,24,13.80
2006,07,17,07,25,13.90
2006,07,17,07,26,13.90
2006,07,17,07,27,13.90
2006,07,17,07,28,13.90
2006,07,17,07,29,13.90
2006,07,17,07,30,14.00
2006,07,17,07,31,14.00
2006,07,17,07,32,14.00
2006,07,17,07,33,14.10
2006,07,17,07,34,14.00
2006,07,17,07,35,14.10
2006,07,17,07,36,14.10
2006,07,17,07,37,14.10
2006,07,17,07,38,14.10
2006,07,17,07,39,14.10
2006,07,17,07,40,14.10
2006,07,17,07,41,14.10
2006,07,17,07,42,14.10
2006,07,17,07,43,14.10
2006,07,17,07,44,14.20
2006,07,17,07,45,14.20
2006,07,17,07,46,14.20
2006,07,17,07,47,14.20
2006,07,17,07,48,14.20
2006,07,17,07,49,14.20
2006,07,17,07,50,14.20
2006,07,17,07,51,14.20
2006,07,17,07,52,14.20
2006,07,17,07,53,14.20
2006,07,17,07,54,14.30
2006,07,17,07,55,14.30
2006,07,17,07,56,14.30
2006,07,17,07,57,14.30
2006,07,17,07,58,14.30
2006,07,17,07,59,14.40
2006,07,17,08,00,14.40
2006,07,17,08,01,14.40
2006,07,17,08,02,14.50
2006,07,17,08,03,14.50
2006,07,17,08,04,14.50
2006,07,17,08,05,14.50
2006,07,17,08,06,14.50
2006,07,17,08,07,14.60
2006,07,17,08,08,14.60
2006,07,17,08,09,14.60
2006,07,17,08,10,14.60
2006,07,17,08,11,14.60
2006,07,17,08,12,14.70
2006,07,17,08,13,14.70
2006,07,17,08,14,14.70
2006,07,17,08,15,14.70
2006,07,17,08,16,14.80
2006,07,17,08,17,14.90
2006,07,17,08,18,15.00
2006,07,17,08,19,15.00
2006,07,17,08,20,15.00
2006,07,17,08,21,15.00
2006,07,17,08,22,15.00
2006,07,17,08,23,15.00
2006,07,17,08,24,15.00
2006,07,17,08,25,15.00
2006,07,17,08,26,15.00
2006,07,17,08,27,15.00
2006,07,17,08,28,15.00
2006,07,17,08,29,15.10
2006,07,17,08,30,15.20
2006,07,17,08,31,15.20
2006,07,17,08,32,15.30
2006,07,17,08,33,15.30
2006,07,17,08,34,15.30
2006,07,17,08,35,15.40
2006,07,17,08,36,15.40
2006,07,17,08,37,15.40
2006,07,17,08,38,15.40
2006,07,17,08,39,15.40
2006,07,17,08,40,15.30
2006,07,17,08,41,15.30
2006,07,17,08,42,15.30
2006,07,17,08,43,15.20
2006,07,17,08,44,15.20
2006,07,17,08,45,15.20
2006,07,17,08,46,15.20
2006,07,17,08,47,15.20
2006,07,17,08,48,15.10
2006,07,17,08,49,15.10
2006,07,17,08,50,15.10
2006,07,17,08,51,15.20
2006,07,17,08,52,15.20
2006,07,17,08,53,15.20
2006,07,17,08,54,15.30
2006,07,17,08,55,15.30
2006,07,17,08,56,15.40
2006,07,17,08,57,15.40
2006,07,17,08,58,15.40
2006,07,17,08,59,15.40
2006,07,17,09,00,15.30
2006,07,17,09,01,15.30
2006,07,17,09,02,15.30
2006,07,17,09,03,15.40
2006,07,17,09,04,15.40
2006,07,17,09,05,15.50
2006,07,17,09,06,15.50
2006,07,17,09,07,15.60
2006,07,17,09,08,15.60
2006,07,17,09,09,15.60
2006,07,17,09,10,15.60
2006,07,17,09,11,15.60
2006,07,17,09,12,15.60
2006,07,17,09,13,15.70
2006,07,17,09,14,15.70
2006,07,17,09,15,15.70
2006,07,17,09,16,15.70
2006,07,17,09,17,15.70
2006,07,17,09,18,15.70
2006,07,17,09,19,15.60
2006,07,17,09,20,15.60
2006,07,17,09,21,15.60
2006,07,17,09,22,15.70
2006,07,17,09,23,15.70
2006,07,17,09,24,15.70
2006,07,17,09,25,15.80
2006,07,17,09,26,15.80
2006,07,17,09,27,15.90
2006,07,17,09,28,16.10
2006,07,17,09,29,16.10
2006,07,17,09,30,16.20
2006,07,17,09,31,16.20
2006,07,17,09,32,16.20
2006,07,17,09,33,16.10
2006,07,17,09,34,16.10
2006,07,17,09,35,16.10
2006,07,17,09,36,16.10
2006,07,17,09,37,16.20
2006,07,17,09,38,16.20
2006,07,17,09,39,16.20
2006,07,17,09,40,16.10
2006,07,17,09,41,16.20
2006,07,17,09,42,16.20
2006,07,17,09,43,16.10
2006,07,17,09,44,16.10
2006,07,17,09,45,16.10
2006,07,17,09,46,16.10
2006,07,17,09,47,16.20
2006,07,17,09,48,16.10
2006,07,17,09,49,16.10
2006,07,17,09,50,16.20
2006,07,17,09,51,16.20
2006,07,17,09,52,16.20
2006,07,17,09,53,16.10
2006,07,17,09,54,16.00
2006,07,17,09,55,16.10
2006,07,17,09,56,16.10
2006,07,17,09,57,16.20
2006,07,17,09,58,16.10
2006,07,17,09,59,16.10
2006,07,17,10,00,16.00
2006,07,17,10,01,15.90
2006,07,17,10,02,15.90
2006,07,17,10,03,16.00
2006,07,17,10,04,16.10
2006,07,17,10,05,16.10
2006,07,17,10,06,16.20
2006,07,17,10,07,16.30
2006,07,17,10,08,16.30
2006,07,17,10,09,16.30
2006,07,17,10,10,16.40
2006,07,17,10,11,16.40
2006,07,17,10,12,16.40
2006,07,17,10,13,16.50
2006,07,17,10,14,16.50
2006,07,17,10,15,16.50
2006,07,17,10,16,16.60
2006,07,17,10,17,16.60
2006,07,17,10,18,16.60
2006,07,17,10,19,16.60
2006,07,17,10,20,16.70
2006,07,17,10,21,16.70
2006,07,17,10,22,16.80
2006,07,17,10,23,16.90
2006,07,17,10,24,17.00
2006,07,17,10,25,17.10
2006,07,17,10,26,17.10
2006,07,17,10,27,17.20
2006,07,17,10,28,17.10
2006,07,17,10,29,17.10
2006,07,17,10,30,17.10
2006,07,17,10,31,17.10
2006,07,17,10,32,17.20
2006,07,17,10,33,17.30
2006,07,17,10,34,17.30
2006,07,17,10,35,17.30
2006,07,17,10,36,17.30
2006,07,17,10,37,17.40
2006,07,17,10,38,17.40
2006,07,17,10,39,17.50
2006,07,17,10,40,17.50
2006,07,17,10,41,17.50
2006,07,17,10,42,17.40
2006,07,17,10,43,17.40
2006,07,17,10,44,17.30
2006,07,17,10,45,17.20
2006,07,17,10,46,17.20
2006,07,17,10,47,17.20
2006,07,17,10,48,17.20
2006,07,17,10,49,17.30
2006,07,17,10,50,17.20
2006,07,17,10,51,17.10
2006,07,17,10,52,17.00
2006,07,17,10,53,17.00
2006,07,17,10,54,17.00
2006,07,17,10,55,17.00
2006,07,17,10,56,17.10
2006,07,17,10,57,17.10
2006,07,17,10,58,17.20
2006,07,17,10,59,17.20
2006,07,17,11,00,17.10
2006,07,17,11,01,17.10
2006,07,17,11,02,17.10
2006,07,17,11,03,17.10
2006,07,17,11,04,17.00
2006,07,17,11,05,17.10
2006,07,17,11,06,17.20
2006,07,17,11,07,17.30
2006,07,17,11,08,17.40
2006,07,17,11,09,17.40
2006,07,17,11,10,17.40
2006,07,17,11,11,17.30
2006,07,17,11,12,17.30
2006,07,17,11,13,17.30
2006,07,17,11,14,17.30
2006,07,17,11,15,17.20
2006,07,17,11,16,17.20
2006,07,17,11,17,17.30
2006,07,17,11,18,17.50
2006,07,17,11,19,17.60
2006,07,17,11,20,17.70
2006,07,17,11,21,17.60
2006,07,17,11,22,17.60
2006,07,17,11,23,17.60
2006,07,17,11,24,17.60
2006,07,17,11,25,17.70
2006,07,17,11,26,17.60
2006,07,17,11,27,17.60
2006,07,17,11,28,17.60
2006,07,17,11,29,17.60
2006,07,17,11,30,17.60
2006,07,17,11,31,17.70
2006,07,17,11,32,17.80
2006,07,17,11,33,17.80
2006,07,17,11,34,17.90
2006,07,17,11,35,17.90
2006,07,17,11,36,17.90
2006,07,17,11,37,17.90
2006,07,17,11,38,17.90
2006,07,17,11,39,17.80
2006,07,17,11,40,17.80
2006,07,17,11,41,17.80
2006,07,17,11,42,17.80
2006,07,17,11,43,17.90
2006,07,17,11,44,18.00
2006,07,17,11,45,18.10
2006,07,17,11,46,18.10
2006,07,17,11,47,18.10
2006,07,17,11,48,18.20
2006,07,17,11,49,18.10
2006,07,17,11,50,18.10
2006,07,17,11,51,18.10
2006,07,17,11,52,18.10
2006,07,17,11,53,18.10
2006,07,17,11,54,18.10
2006,07,17,11,55,18.10
2006,07,17,11,56,18.00
2006,07,17,11,57,17.90
2006,07,17,11,58,17.90
2006,07,17,11,59,17.90
2006,07,17,12,00,18.00
2006,07,17,12,01,18.00
2006,07,17,12,02,18.10
2006,07,17,12,03,18.20
2006,07,17,12,04,18.20
2006,07,17,12,05,18.20
2006,07,17,12,06,18.20
2006,07,17,12,07,18.20
2006,07,17,12,08,18.20
2006,07,17,12,09,18.20
2006,07,17,12,10,18.30
2006,07,17,12,11,18.30
2006,07,17,12,12,18.30
2006,07,17,12,13,18.20
2006,07,17,12,14,18.20
2006,07,17,12,15,18.20
2006,07,17,12,16,18.20
2006,07,17,12,17,18.20
2006,07,17,12,18,18.30
2006,07,17,12,19,18.40
2006,07,17,12,20,18.40
2006,07,17,12,21,18.40
2006,07,17,12,22,18.40
2006,07,17,12,23,18.30
2006,07,17,12,24,18.30
2006,07,17,12,25,18.30
2006,07,17,12,26,18.30
2006,07,17,12,27,18.40
2006,07,17,12,28,18.40
2006,07,17,12,29,18.30
2006,07,17,12,30,18.40
2006,07,17,12,31,18.40
2006,07,17,12,32,18.50
2006,07,17,12,33,18.40
2006,07,17,12,34,18.30
2006,07,17,12,35,18.30
2006,07,17,12,36,18.30
2006,07,17,12,37,18.20
2006,07,17,12,38,18.10
2006,07,17,12,39,18.10
2006,07,17,12,40,18.10
2006,07,17,12,41,18.10
2006,07,17,12,42,18.00
2006,07,17,12,43,18.10
2006,07,17,12,44,18.10
2006,07,17,12,45,18.10
2006,07,17,12,46,18.20
2006,07,17,12,47,18.20
2006,07,17,12,48,18.20
2006,07,17,12,49,18.20
2006,07,17,12,50,18.30
2006,07,17,12,51,18.30
2006,07,17,12,52,18.30
2006,07,17,12,53,18.40
2006,07,17,12,54,18.60
2006,07,17,12,55,18.80
2006,07,17,12,56,18.80
2006,07,17,12,57,18.80
2006,07,17,12,58,18.80
2006,07,17,12,59,18.80
2006,07,17,13,00,18.70
2006,07,17,13,01,18.70
2006,07,17,13,02,18.70
2006,07,17,13,03,18.80
2006,07,17,13,04,18.80
2006,07,17,13,05,18.80
2006,07,17,13,06,18.90
2006,07,17,13,07,18.90
2006,07,17,13,08,18.90
2006,07,17,13,09,18.80
2006,07,17,13,10,18.80
2006,07,17,13,11,18.80
2006,07,17,13,12,18.80
2006,07,17,13,13,18.90
2006,07,17,13,14,18.80
2006,07,17,13,15,18.80
2006,07,17,13,16,18.80
2006,07,17,13,17,18.90
2006,07,17,13,18,18.90
2006,07,17,13,19,18.90
2006,07,17,13,20,18.80
2006,07,17,13,21,18.80
2006,07,17,13,22,18.90
2006,07,17,13,23,19.00
2006,07,17,13,24,19.10
2006,07,17,13,25,19.10
2006,07,17,13,26,19.00
2006,07,17,13,27,19.00
2006,07,17,13,28,18.80
2006,07,17,13,29,18.70
2006,07,17,13,30,18.60
2006,07,17,13,31,18.60
2006,07,17,13,32,18.70
2006,07,17,13,33,18.80
2006,07,17,13,34,18.80
2006,07,17,13,35,18.90
2006,07,17,13,36,19.00
2006,07,17,13,37,19.00
2006,07,17,13,38,19.10
2006,07,17,13,39,19.20
2006,07,17,13,40,19.30
2006,07,17,13,41,19.30
2006,07,17,13,42,19.30
2006,07,17,13,43,19.20
2006,07,17,13,44,19.10
2006,07,17,13,45,19.10
2006,07,17,13,46,19.10
2006,07,17,13,47,19.10
2006,07,17,13,48,19.10
2006,07,17,13,49,19.10
2006,07,17,13,50,19.20
2006,07,17,13,51,19.20
2006,07,17,13,52,19.20
2006,07,17,13,53,19.10
2006,07,17,13,54,19.10
2006,07,17,13,55,19.10
2006,07,17,13,56,19.20
2006,07,17,13,57,19.30
2006,07,17,13,58,19.40
2006,07,17,13,59,19.50
2006,07,17,14,00,19.60
2006,07,17,14,01,19.70
2006,07,17,14,02,19.80
2006,07,17,14,03,19.80
2006,07,17,14,04,19.70
2006,07,17,14,05,19.60
2006,07,17,14,06,19.60
2006,07,17,14,07,19.50
2006,07,17,14,08,19.50
2006,07,17,14,09,19.60
2006,07,17,14,10,19.60
2006,07,17,14,11,19.60
2006,07,17,14,12,19.60
2006,07,17,14,13,19.50
2006,07,17,14,14,19.40
2006,07,17,14,15,19.30
2006,07,17,14,16,19.30
2006,07,17,14,17,19.30
2006,07,17,14,18,19.30
2006,07,17,14,19,19.30
2006,07,17,14,20,19.40
2006,07,17,14,21,19.40
2006,07,17,14,22,19.50
2006,07,17,14,23,19.60
2006,07,17,14,24,19.70
2006,07,17,14,25,19.70
2006,07,17,14,26,19.70
2006,07,17,14,27,19.70
2006,07,17,14,28,19.60
2006,07,17,14,29,19.60
2006,07,17,14,30,19.60
2006,07,17,14,31,19.60
2006,07,17,14,32,19.60
2006,07,17,14,33,19.70
2006,07,17,14,34,19.80
2006,07,17,14,35,19.80
2006,07,17,14,36,19.90
2006,07,17,14,37,19.90
2006,07,17,14,38,19.90
2006,07,17,14,39,19.90
2006,07,17,14,40,19.90
2006,07,17,14,41,20.00
2006,07,17,14,42,20.00
2006,07,17,14,43,19.90
2006,07,17,14,44,19.70
2006,07,17,14,45,19.60
2006,07,17,14,46,19.60
2006,07,17,14,47,19.70
2006,07,17,14,48,19.60
2006,07,17,14,49,19.50
2006,07,17,14,50,19.40
2006,07,17,14,51,19.40
2006,07,17,14,52,19.50
2006,07,17,14,53,19.40
2006,07,17,14,54,19.50
2006,07,17,14,55,19.60
2006,07,17,14,56,19.70
2006,07,17,14,57,19.80
2006,07,17,14,58,19.80
2006,07,17,14,59,19.80
2006,07,17,15,00,19.80
2006,07,17,15,01,19.70
2006,07,17,15,02,19.80
2006,07,17,15,03,19.80
2006,07,17,15,04,19.90
2006,07,17,15,05,19.90
2006,07,17,15,06,19.90
2006,07,17,15,07,19.80
2006,07,17,15,08,19.70
2006,07,17,15,09,19.70
2006,07,17,15,10,19.70
2006,07,17,15,11,19.80
2006,07,17,15,12,19.90
2006,07,17,15,13,19.90
2006,07,17,15,14,20.00
2006,07,17,15,15,20.00
2006,07,17,15,16,20.00
2006,07,17,15,17,20.10
2006,07,17,15,18,20.10
2006,07,17,15,19,20.10
2006,07,17,15,20,20.10
2006,07,17,15,21,20.00
2006,07,17,15,22,19.90
2006,07,17,15,23,19.90
2006,07,17,15,24,19.90
2006,07,17,15,25,19.80
2006,07,17,15,26,19.80
2006,07,17,15,27,19.70
2006,07,17,15,28,19.70
2006,07,17,15,29,19.70
2006,07,17,15,30,19.80
2006,07,17,15,31,19.90
2006,07,17,15,32,20.00
2006,07,17,15,33,20.00
2006,07,17,15,34,19.90
2006,07,17,15,35,19.90
2006,07,17,15,36,19.90
2006,07,17,15,37,19.90
2006,07,17,15,38,19.80
2006,07,17,15,39,19.70
2006,07,17,15,40,19.80
2006,07,17,15,41,19.70
2006,07,17,15,42,19.70
2006,07,17,15,43,19.70
2006,07,17,15,44,19.70
2006,07,17,15,45,19.70
2006,07,17,15,46,19.70
2006,07,17,15,47,19.70
2006,07,17,15,48,19.70
2006,07,17,15,49,19.70
2006,07,17,15,50,19.70
2006,07,17,15,51,19.70
2006,07,17,15,52,19.70
2006,07,17,15,53,19.70
2006,07,17,15,54,19.70
2006,07,17,22,08,13.30
2006,07,17,22,09,13.30
2006,07,17,22,10,13.30
2006,07,17,22,11,13.30
2006,07,17,22,12,13.30
2006,07,17,22,13,13.30
2006,07,17,22,14,13.20
2006,07,17,22,15,13.20
2006,07,17,22,16,13.20
2006,07,17,22,17,13.20
2006,07,17,22,18,13.20
2006,07,17,22,19,13.20
2006,07,17,22,20,13.20
2006,07,17,22,21,13.20
2006,07,17,22,22,13.20
2006,07,17,22,23,13.20
2006,07,17,22,24,13.20
2006,07,17,22,25,13.20
2006,07,17,22,26,13.20
2006,07,17,22,27,13.20
2006,07,17,22,28,13.20
2006,07,17,22,29,13.20
2006,07,17,22,30,13.20
2006,07,17,22,31,13.20
2006,07,17,22,32,13.20
2006,07,17,22,33,13.20
2006,07,17,22,34,13.20
2006,07,17,22,35,13.20
2006,07,17,22,36,13.20
2006,07,17,22,37,13.20
2006,07,17,22,38,13.20
2006,07,17,22,39,13.20
2006,07,17,22,40,13.20
2006,07,17,22,41,13.20
2006,07,17,22,42,13.20
2006,07,17,22,43,13.20
2006,07,17,22,44,13.20
2006,07,17,22,45,13.20
2006,07,17,22,46,13.20
2006,07,17,22,47,13.20
2006,07,17,22,48,13.20
2006,07,17,22,49,13.20
2006,07,17,22,50,13.20
2006,07,17,22,51,13.20
2006,07,17,22,52,13.20
2006,07,17,22,53,13.20
2006,07,17,22,54,13.20
2006,07,17,22,55,13.20
2006,07,17,22,56,13.20
2006,07,17,22,57,13.20
2006,07,17,22,58,13.20
2006,07,17,22,59,13.20
2006,07,17,23,00,13.20
2006,07,17,23,01,13.20
2006,07,17,23,02,13.20
2006,07,17,23,03,13.20
2006,07,17,23,04,13.30
2006,07,17,23,05,13.30
2006,07,17,23,06,13.30
2006,07,17,23,07,13.30
2006,07,17,23,08,13.30
2006,07,17,23,09,13.30
2006,07,17,23,10,13.30
2006,07,17,23,11,13.30
2006,07,17,23,12,13.30
2006,07,17,23,13,13.30
2006,07,17,23,14,13.30
2006,07,17,23,15,13.30
2006,07,17,23,16,13.30
2006,07,17,23,17,13.30
2006,07,17,23,18,13.30
2006,07,17,23,19,13.30
2006,07,17,23,20,13.30
2006,07,17,23,21,13.30
2006,07,17,23,22,13.30
2006,07,17,23,23,13.30
2006,07,17,23,24,13.30
2006,07,17,23,25,13.30
2006,07,17,23,26,13.30
2006,07,17,23,27,13.30
2006,07,17,23,28,13.30
2006,07,17,23,29,13.30
2006,07,17,23,30,13.30
2006,07,17,23,31,13.30
2006,07,17,23,32,13.30